This is the latest recevied weather packets stored in our database for station/object NEWPRT. If no packets are shown the sender has not sent any weather packets the latest 10 day(s).
| Time | Temp. | Humidity | Pressure | Rain* | Wind** | Luminosity | Snow |
|---|---|---|---|---|---|---|---|
| 1777459619 | - | 54% | 1024.4 hPa | 0 mm | - | - | - |
| 1777459296 | - | 58% | 1024.6 hPa | 0 mm | - | - | - |
| 1777458973 | - | 56% | 1024.6 hPa | 0 mm | - | - | - |
| 1777458650 | - | 55% | 1024.5 hPa | 0 mm | - | - | - |
| 1777458327 | - | 59% | 1024.7 hPa | 0 mm | - | - | - |
| 1777458005 | - | 59% | 1024.7 hPa | 0 mm | - | - | - |
| 1777457681 | - | 58% | 1024.7 hPa | 0 mm | - | - | - |
| 1777457358 | - | 57% | 1024.7 hPa | 0 mm | - | - | - |
| 1777457035 | - | 58% | 1024.6 hPa | 0 mm | - | - | - |
| 1777456712 | - | 58% | 1024.6 hPa | 0 mm | - | - | - |
| 1777456389 | - | 58% | 1024.7 hPa | 0 mm | - | - | - |
| 1777456066 | - | 59% | 1024.6 hPa | 0 mm | - | - | - |
| 1777455743 | - | 61% | 1024.8 hPa | 0 mm | - | - | - |
| 1777455420 | - | 59% | 1024.6 hPa | 0 mm | - | - | - |
| 1777455097 | - | 61% | 1024.8 hPa | 0 mm | - | - | - |
| 1777454775 | - | 60% | 1024.8 hPa | 0 mm | - | - | - |
| 1777454451 | - | 61% | 1024.6 hPa | 0 mm | - | - | - |
| 1777454128 | - | 61% | 1024.6 hPa | 0 mm | - | - | - |
| 1777453805 | - | 62% | 1024.9 hPa | 0 mm | - | - | - |
| 1777453482 | - | 62% | 1024.8 hPa | 0 mm | - | - | - |
| 1777453159 | - | 63% | 1024.8 hPa | 0 mm | - | - | - |
| 1777452836 | - | 61% | 1024.8 hPa | 0 mm | - | - | - |
| 1777452513 | - | 61% | 1024.6 hPa | 0 mm | - | - | - |
| 1777452191 | - | 59% | 1024.9 hPa | 0 mm | - | - | - |
| 1777451867 | - | 60% | 1024.8 hPa | 0 mm | - | - | - |
* Rain latest hour (hover to see other rain measurements)
** Current wind speed in m/s (hover to see current wind gust speed)